• en Suisse
  • Liste des pays
  • À 7 jours
  • Température de l'eau
  • Carte satellitaire
  • Carte météo
  • Widgets météo
  • user-avatar
    Se connecter

    Météo par heure à Sultanaevo

    Ce jour, 19 Août, Dimanche

    Heure Température Précipitation Vent Pression Humidité
    00:00 +9°C° 0 mm 3 m/s 755 mmHg 87%
    01:00 +9°C° 0 mm 3 m/s 755 mmHg 88%
    02:00 +8°C° 0 mm 3 m/s 756 mmHg 89%
    03:00 +8°C° 0 mm 3 m/s 756 mmHg 90%
    04:00 +7°C° 0 mm 3 m/s 756 mmHg 92%
    05:00 +8°C° 0 mm 3 m/s 756 mmHg 89%
    06:00 +9°C° 0 mm 3 m/s 756 mmHg 86%
    07:00 +10°C° 0 mm 3 m/s 756 mmHg 84%
    08:00 +11°C° 0 mm 4 m/s 756 mmHg 78%
    09:00 +13°C° 0 mm 4 m/s 756 mmHg 73%
    10:00 +15°C° 0 mm 4 m/s 756 mmHg 68%
    11:00 +17°C° 0 mm 4 m/s 756 mmHg 65%
    12:00 +18°C° 0 mm 4 m/s 755 mmHg 61%
    13:00 +19°C° 0 mm 4 m/s 755 mmHg 58%
    14:00 +19°C° 0 mm 4 m/s 755 mmHg 58%
    15:00 +19°C° 0 mm 4 m/s 755 mmHg 58%
    16:00 +19°C° 0 mm 4 m/s 755 mmHg 58%
    17:00 +18°C° 0 mm 4 m/s 755 mmHg 64%
    18:00 +17°C° 0 mm 3 m/s 754 mmHg 70%
    19:00 +14°C° 0 mm 3 m/s 754 mmHg 76%
    20:00 +13°C° 0 mm 3 m/s 754 mmHg 78%
    21:00 +13°C° 0 mm 2 m/s 755 mmHg 80%
    22:00 +12°C° 0 mm 2 m/s 755 mmHg 83%
    23:00 +12°C° 0 mm 2 m/s 755 mmHg 84%

    Demain, 20 Août, Lundi

    Heure Température Précipitation Vent Pression Humidité
    00:00 +10°C° 0 mm 2 m/s 754 mmHg 86%
    01:00 +10°C° 0 mm 2 m/s 754 mmHg 88%
    02:00 +9°C° 0 mm 2 m/s 754 mmHg 88%
    03:00 +9°C° 0 mm 2 m/s 754 mmHg 89%
    04:00 +10°C° 0 mm 1 m/s 754 mmHg 90%
    05:00 +11°C° 0 mm 1 m/s 754 mmHg 88%
    06:00 +11°C° 0 mm 1 m/s 754 mmHg 86%
    07:00 +12°C° 0 mm 1 m/s 754 mmHg 83%
    08:00 +14°C° 0 mm 2 m/s 754 mmHg 77%
    09:00 +16°C° 0 mm 2 m/s 754 mmHg 71%
    10:00 +17°C° 0 mm 2 m/s 754 mmHg 65%
    11:00 +18°C° 0 mm 2 m/s 754 mmHg 61%
    12:00 +19°C° 0 mm 2 m/s 753 mmHg 58%
    13:00 +20°C° 0 mm 2 m/s 753 mmHg 54%
    14:00 +20°C° 0 mm 3 m/s 753 mmHg 55%
    15:00 +20°C° 0 mm 3 m/s 753 mmHg 56%
    16:00 +20°C° 0 mm 3 m/s 753 mmHg 57%
    17:00 +19°C° 0 mm 2 m/s 752 mmHg 62%
    18:00 +18°C° 0 mm 2 m/s 752 mmHg 67%
    19:00 +18°C° 0 mm 1 m/s 752 mmHg 73%
    20:00 +16°C° 0 mm 1 m/s 752 mmHg 76%
    21:00 +15°C° 0 mm 1 m/s 752 mmHg 79%
    22:00 +14°C° 0 mm 2 m/s 752 mmHg 83%
    23:00 +14°C° 0 mm 2 m/s 752 mmHg 83%

    Après-demain, 21 Août, Mardi

    Heure Température Précipitation Vent Pression Humidité
    00:00 +14°C° 0 mm 2 m/s 752 mmHg 83%
    01:00 +13°C° 0 mm 3 m/s 751 mmHg 83%
    02:00 +13°C° 0,3 mm 3 m/s 751 mmHg 86%
    03:00 +13°C° 0,3 mm 3 m/s 751 mmHg 88%
    04:00 +13°C° 0,3 mm 3 m/s 751 mmHg 91%
    05:00 +14°C° 0,5 mm 4 m/s 750 mmHg 91%
    06:00 +14°C° 0,5 mm 4 m/s 750 mmHg 91%
    07:00 +14°C° 0,5 mm 4 m/s 750 mmHg 92%
    08:00 +17°C° 0,2 mm 4 m/s 750 mmHg 89%
    09:00 +18°C° 0,2 mm 4 m/s 750 mmHg 87%
    10:00 +19°C° 0,2 mm 4 m/s 750 mmHg 84%
    11:00 +20°C° 0,1 mm 3 m/s 750 mmHg 81%
    12:00 +21°C° 0,1 mm 3 m/s 749 mmHg 78%
    13:00 +22°C° 0,1 mm 3 m/s 749 mmHg 75%
    14:00 +24°C° 0,5 mm 3 m/s 749 mmHg 74%
    15:00 +24°C° 0,5 mm 3 m/s 749 mmHg 72%
    16:00 +25°C° 0,5 mm 3 m/s 749 mmHg 70%
    17:00 +24°C° 0,3 mm 2 m/s 748 mmHg 75%
    18:00 +23°C° 0,3 mm 2 m/s 748 mmHg 79%
    19:00 +21°C° 0,3 mm 2 m/s 748 mmHg 83%
    20:00 +20°C° 0,1 mm 2 m/s 748 mmHg 86%
    21:00 +19°C° 0,1 mm 2 m/s 748 mmHg 89%
    22:00 +18°C° 0,1 mm 3 m/s 748 mmHg 92%
    23:00 +18°C° 0 mm 3 m/s 748 mmHg 91%

    22 Août, Mercredi

    Heure Température Précipitation Vent Pression Humidité
    00:00 +18°C° 0 mm 3 m/s 747 mmHg 91%
    01:00 +17°C° 0 mm 3 m/s 747 mmHg 91%
    02:00 +17°C° 0 mm 3 m/s 747 mmHg 91%
    03:00 +17°C° 0 mm 3 m/s 747 mmHg 90%
    04:00 +15°C° 0 mm 4 m/s 746 mmHg 89%
    05:00 +17°C° 0 mm 4 m/s 746 mmHg 87%
    06:00 +17°C° 0 mm 4 m/s 746 mmHg 85%
    07:00 +18°C° 0 mm 4 m/s 746 mmHg 83%
    08:00 +19°C° 0 mm 5 m/s 746 mmHg 77%
    09:00 +21°C° 0 mm 5 m/s 746 mmHg 71%
    10:00 +23°C° 0 mm 6 m/s 745 mmHg 66%
    11:00 +24°C° 0 mm 6 m/s 745 mmHg 63%
    12:00 +24°C° 0 mm 7 m/s 745 mmHg 60%
    13:00 +26°C° 0 mm 7 m/s 745 mmHg 57%
    14:00 +24°C° 0,6 mm 7 m/s 745 mmHg 64%
    15:00 +22°C° 0,6 mm 6 m/s 745 mmHg 71%
    16:00 +21°C° 0,6 mm 6 m/s 745 mmHg 79%
    17:00 +20°C° 0,5 mm 5 m/s 745 mmHg 83%
    18:00 +19°C° 0,5 mm 5 m/s 745 mmHg 87%
    19:00 +17°C° 0,5 mm 4 m/s 745 mmHg 91%
    20:00 +15°C° 0 mm 4 m/s 746 mmHg 92%
    21:00 +14°C° 0 mm 3 m/s 746 mmHg 92%
    22:00 +13°C° 0 mm 3 m/s 746 mmHg 93%
    23:00 +13°C° 0 mm 3 m/s 746 mmHg 93%

    23 Août, Jeudi

    Heure Température Précipitation Vent Pression Humidité
    00:00 +12°C° 0 mm 3 m/s 747 mmHg 93%
    01:00 +12°C° 0 mm 3 m/s 747 mmHg 92%
    02:00 +11°C° 0,2 mm 3 m/s 747 mmHg 93%
    03:00 +11°C° 0,2 mm 3 m/s 748 mmHg 94%
    04:00 +11°C° 0,2 mm 3 m/s 748 mmHg 94%
    05:00 +11°C° 0,2 mm 3 m/s 748 mmHg 93%
    06:00 +11°C° 0,2 mm 4 m/s 749 mmHg 91%
    07:00 +12°C° 0,2 mm 4 m/s 749 mmHg 90%
    08:00 +13°C° 0 mm 5 m/s 750 mmHg 83%
    09:00 +14°C° 0 mm 5 m/s 750 mmHg 76%
    10:00 +15°C° 0 mm 5 m/s 750 mmHg 69%
    11:00 +15°C° 0 mm 5 m/s 750 mmHg 66%
    12:00 +16°C° 0 mm 5 m/s 751 mmHg 62%
    13:00 +17°C° 0 mm 5 m/s 751 mmHg 59%
    14:00 +16°C° 0,1 mm 6 m/s 751 mmHg 60%
    15:00 +16°C° 0,1 mm 6 m/s 751 mmHg 61%
    16:00 +16°C° 0,1 mm 6 m/s 751 mmHg 63%
    17:00 +15°C° 0 mm 5 m/s 752 mmHg 66%
    18:00 +14°C° 0 mm 5 m/s 752 mmHg 69%
    19:00 +13°C° 0 mm 4 m/s 752 mmHg 72%
    20:00 +12°C° 0 mm 4 m/s 753 mmHg 74%
    21:00 +11°C° 0 mm 3 m/s 753 mmHg 77%
    22:00 +10°C° 0 mm 3 m/s 753 mmHg 79%
    23:00 +10°C° 0 mm 3 m/s 753 mmHg 78%

    24 Août, Vendredi

    Heure Température Précipitation Vent Pression Humidité
    00:00 +10°C° 0 mm 3 m/s 754 mmHg 78%
    01:00 +10°C° 0 mm 3 m/s 754 mmHg 77%
    02:00 +10°C° 0 mm 4 m/s 754 mmHg 77%
    03:00 +10°C° 0 mm 4 m/s 754 mmHg 77%
    04:00 +10°C° 0 mm 4 m/s 754 mmHg 77%
    05:00 +11°C° 0 mm 4 m/s 754 mmHg 76%
    06:00 +11°C° 0 mm 4 m/s 754 mmHg 76%
    07:00 +11°C° 0 mm 4 m/s 753 mmHg 76%
    08:00 +12°C° 0,1 mm 4 m/s 753 mmHg 77%
    09:00 +12°C° 0,1 mm 5 m/s 753 mmHg 78%
    10:00 +13°C° 0,1 mm 5 m/s 753 mmHg 79%
    11:00 +13°C° 0,4 mm 5 m/s 753 mmHg 81%
    12:00 +13°C° 0,4 mm 5 m/s 753 mmHg 84%
    13:00 +13°C° 0,4 mm 5 m/s 753 mmHg 87%
    14:00 +13°C° 0,1 mm 5 m/s 752 mmHg 87%
    15:00 +13°C° 0,1 mm 5 m/s 752 mmHg 88%
    16:00 +14°C° 0,1 mm 4 m/s 752 mmHg 88%
    17:00 +14°C° 0 mm 4 m/s 752 mmHg 89%
    18:00 +14°C° 0 mm 3 m/s 752 mmHg 90%
    19:00 +14°C° 0 mm 3 m/s 752 mmHg 91%
    20:00 +14°C° 0 mm 2 m/s 753 mmHg 92%
    21:00 +14°C° 0 mm 2 m/s 753 mmHg 93%
    22:00 +13°C° 0 mm 2 m/s 753 mmHg 95%
    23:00 +12°C° 0 mm 3 m/s 753 mmHg 95%
    Voir plus